This demonstration page uses our WeatherBlox Daily Observations layout. Learn more.

39.29038, -76.61219

Hourly Observations for April 14, 2016

Temp ( °F °C ) Dew Point ( °F °C ) Humidity (%) Winds ( mph kmh ) Pressure ( in mb ) Visibility ( mi km ) Precip ( " mm )
12:54 am 00:54 undefined 47 8.3 35 1.7 63 63 undefined N/A 30.32 1027 N/A 0 0
1:54 am 01:54 undefined 46 7.8 32 0 58 58 undefined N/A 30.32 1027 N/A 0 0
2:54 am 02:54 undefined 45 7.2 32 0 61 61 undefined N/A 30.32 1027 N/A 0 0
3:54 am 03:54 undefined 45 7.2 31 -0.6 58 58 undefined N/A 30.3 1026 N/A 0 0
4:54 am 04:54 undefined 45 7.2 32 0 61 61 undefined N/A 30.31 1026 N/A 0 0
5:54 am 05:54 undefined 44 6.7 32 0 63 63 undefined N/A 30.31 1026 N/A 0 0
6:54 am 06:54 undefined 44 6.7 33 0.6 65 65 undefined N/A 30.33 1027 N/A 0 0
7:54 am 07:54 undefined 48 8.9 34 1.1 58 58 undefined N/A 30.35 1028 N/A 0 0
8:54 am 08:54 undefined 51 10.6 36 2.2 56 56 undefined N/A 30.36 1028 N/A 0 0
9:54 am 09:54 undefined 54 12.2 32 0 43 43 undefined N/A 30.36 1028 N/A 0 0
10:54 am 10:54 undefined 57 13.9 32 0 39 39 undefined N/A 30.36 1028 N/A 0 0
11:54 am 11:54 undefined 58 14.4 33 0.6 39 39 undefined N/A 30.36 1028 N/A 0 0
12:54 pm 12:54 undefined 58 14.4 32 0 38 38 undefined N/A 30.35 1028 N/A 0 0
1:54 pm 13:54 undefined 59 15 32 0 36 36 undefined N/A 30.33 1027 N/A 0 0
2:54 pm 14:54 undefined 60 15.6 30 -1.1 32 32 undefined N/A 30.32 1027 N/A 0 0
3:54 pm 15:54 undefined 62 16.7 31 -0.6 31 31 undefined N/A 30.3 1026 N/A 0 0
4:54 pm 16:54 undefined 61 16.1 29 -1.7 30 30 undefined N/A 30.29 1026 N/A 0 0
5:54 pm 17:54 undefined 60 15.6 28 -2.2 30 30 undefined N/A 30.29 1026 N/A 0 0
6:54 pm 18:54 undefined 59 15 28 -2.2 31 31 undefined N/A 30.29 1026 N/A 0 0
7:54 pm 19:54 undefined 58 14.4 28 -2.2 32 32 undefined N/A 30.29 1026 N/A 0 0
8:54 pm 20:54 undefined 57 13.9 30 -1.1 36 36 undefined N/A 30.32 1027 N/A 0 0
9:54 pm 21:54 undefined 56 13.3 35 1.7 46 46 undefined N/A 30.34 1027 N/A 0 0
10:54 pm 22:54 undefined 53 11.7 37 2.8 55 55 undefined N/A 30.35 1028 N/A 0 0
11:54 pm 23:54 undefined 51 10.6 36 2.2 56 56 undefined N/A 30.36 1028 N/A 0 0

Powered by AerisWeather